NJE618A LFML-EDDL

Flight info

Callsign NJE618A
Flight time N/A
Altitude 39000
Route ETREK DCT LOGNI DCT ARFOZ DCT DJL DCT JOCUZ DCT ROUSY M624 DIK N853 ELDAR DCT BIKMU BIKMU1A
Aircraft CL60/M-SBDE1E2E3FGHIJ4J5J7M3RWXY/LB1V1D1

Departure

Time 2026-04-27 17:49
Airport Marseille Provence Airport (LFML)

Arrival

Time N/A
Airport Düsseldorf Airport (EDDL)
Time Latitude Longitude Altitude Speed Heading
2026-04-27 17:39 43.44309 5.21295 28 ft 0 kts 62°
2026-04-27 17:44 43.44309 5.21296 28 ft 0 kts 62°
2026-04-27 17:44 43.44313 5.21307 28 ft 2 kts 62°
2026-04-27 17:44 43.44324 5.21335 28 ft 3 kts 62°
2026-04-27 17:45 43.44341 5.21380 29 ft 6 kts 70°
2026-04-27 17:45 43.44306 5.21420 29 ft 9 kts 199°
2026-04-27 17:45 43.44263 5.21335 29 ft 13 kts 239°
2026-04-27 17:45 43.44217 5.21217 28 ft 13 kts 242°
2026-04-27 17:46 43.44200 5.21092 27 ft 15 kts 303°
2026-04-27 17:46 43.44275 5.20963 24 ft 17 kts 304°
2026-04-27 17:46 43.44348 5.20807 23 ft 21 kts 311°
2026-04-27 17:46 43.44461 5.20646 21 ft 22 kts 313°
2026-04-27 17:47 43.44580 5.20475 20 ft 26 kts 314°
2026-04-27 17:47 43.44667 5.20352 19 ft 28 kts 314°
2026-04-27 17:47 43.44862 5.20076 19 ft 31 kts 312°
2026-04-27 17:47 43.44928 5.19983 19 ft 1 kts 313°
2026-04-27 17:48 43.44946 5.19958 19 ft 6 kts 312°
2026-04-27 17:48 43.44967 5.19822 19 ft 15 kts 227°
2026-04-27 17:48 43.44852 5.19819 19 ft 19 kts 129°
2026-04-27 17:48 43.44813 5.19881 19 ft 10 kts 132°
2026-04-27 17:49 43.44654 5.20106 19 ft 77 kts 134°
2026-04-27 17:49 43.44051 5.20984 164 ft 161 kts 136°
2026-04-27 17:49 43.43322 5.22237 1049 ft 182 kts 113°
2026-04-27 17:49 43.42978 5.23883 2287 ft 189 kts 104°
2026-04-27 17:50 43.42966 5.25754 3290 ft 208 kts 86°
2026-04-27 17:50 43.44788 5.28582 5725 ft 215 kts 22°
2026-04-27 17:50 43.46271 5.28688 6706 ft 229 kts 345°
2026-04-27 17:51 43.47773 5.28079 7903 ft 231 kts 342°
2026-04-27 17:51 43.49347 5.27322 8854 ft 256 kts 342°
2026-04-27 17:51 43.51108 5.26550 9735 ft 281 kts 342°
2026-04-27 17:51 43.53038 5.25707 10200 ft 294 kts 342°
2026-04-27 17:52 43.55142 5.24782 10411 ft 336 kts 342°
2026-04-27 17:52 43.57402 5.23782 11478 ft 350 kts 342°
2026-04-27 17:52 43.59709 5.22758 12713 ft 356 kts 342°
2026-04-27 17:52 43.62054 5.21714 13894 ft 362 kts 342°
2026-04-27 17:53 43.64472 5.20635 15045 ft 367 kts 342°
2026-04-27 17:53 43.66881 5.19558 16165 ft 372 kts 341°
2026-04-27 17:53 43.69347 5.18454 17221 ft 377 kts 341°
2026-04-27 17:53 43.71842 5.17323 18223 ft 383 kts 340°
2026-04-27 17:54 43.74377 5.16130 19198 ft 387 kts 340°
2026-04-27 17:54 43.76932 5.14924 20094 ft 393 kts 340°
2026-04-27 17:54 43.79526 5.13697 20966 ft 399 kts 340°
2026-04-27 17:54 43.82170 5.12446 21823 ft 404 kts 340°
2026-04-27 17:55 43.84842 5.11180 22629 ft 409 kts 340°
2026-04-27 17:55 43.87525 5.09912 23417 ft 413 kts 341°
2026-04-27 17:55 43.90359 5.08998 24190 ft 419 kts 349°
2026-04-27 17:55 43.93237 5.08357 24962 ft 423 kts 349°
2026-04-27 17:56 43.96150 5.07699 25703 ft 426 kts 349°
2026-04-27 17:56 43.99079 5.07034 26386 ft 430 kts 349°
2026-04-27 17:56 44.02065 5.06356 27035 ft 433 kts 349°
2026-04-27 17:56 44.05024 5.05681 27616 ft 437 kts 349°
2026-04-27 17:57 44.08050 5.04991 28188 ft 441 kts 349°
2026-04-27 17:57 44.11103 5.04292 28735 ft 445 kts 349°
2026-04-27 17:57 44.14140 5.03597 29261 ft 447 kts 349°
2026-04-27 17:57 44.17257 5.02882 29771 ft 450 kts 348°
2026-04-27 17:58 44.20334 5.02175 30382 ft 449 kts 349°
2026-04-27 17:58 44.23418 5.01466 31073 ft 446 kts 349°
2026-04-27 17:58 44.26469 5.00763 31746 ft 444 kts 349°
2026-04-27 17:58 44.29498 5.00064 32380 ft 442 kts 349°
2026-04-27 17:59 44.32534 4.99364 32981 ft 440 kts 349°
2026-04-27 17:59 44.35521 4.98672 33527 ft 438 kts 349°
2026-04-27 17:59 44.38541 4.97973 34071 ft 437 kts 349°
2026-04-27 17:59 44.41529 4.97280 34576 ft 436 kts 348°
2026-04-27 18:00 44.44511 4.96588 35025 ft 434 kts 348°
2026-04-27 18:00 44.47464 4.95902 35436 ft 433 kts 348°
2026-04-27 18:00 44.50438 4.95209 35818 ft 433 kts 348°
2026-04-27 18:00 44.53402 4.94519 36180 ft 433 kts 348°
2026-04-27 18:01 44.56388 4.93822 36534 ft 432 kts 348°
2026-04-27 18:01 44.59333 4.93134 36952 ft 432 kts 348°
2026-04-27 18:01 44.62300 4.92441 37387 ft 431 kts 348°
2026-04-27 18:01 44.65248 4.91751 37831 ft 430 kts 348°
2026-04-27 18:02 44.68230 4.91052 38246 ft 429 kts 348°
2026-04-27 18:02 44.71157 4.90346 38634 ft 428 kts 346°
2026-04-27 18:02 44.74004 4.89224 38992 ft 424 kts 337°
2026-04-27 18:02 44.76733 4.87713 39035 ft 428 kts 335°
2026-04-27 18:03 44.82319 4.84560 39053 ft 436 kts 335°
2026-04-27 18:03 44.87972 4.81369 39054 ft 438 kts 335°
2026-04-27 18:04 44.93620 4.78176 39057 ft 437 kts 335°
2026-04-27 18:04 44.99261 4.74980 39070 ft 436 kts 335°
2026-04-27 18:05 45.04935 4.71758 39076 ft 436 kts 335°
2026-04-27 18:05 45.10573 4.68556 39080 ft 437 kts 335°
2026-04-27 18:06 45.16468 4.66340 39090 ft 443 kts 348°
2026-04-27 18:06 45.22680 4.66164 39094 ft 450 kts
2026-04-27 18:07 45.28812 4.68104 39089 ft 455 kts 13°
2026-04-27 18:07 45.34866 4.70672 39079 ft 455 kts 13°
2026-04-27 18:08 45.40947 4.73253 39070 ft 456 kts 13°
2026-04-27 18:08 45.47024 4.75839 39068 ft 456 kts 13°
2026-04-27 18:09 45.53075 4.78420 39076 ft 456 kts 13°
2026-04-27 18:09 45.59161 4.81022 39073 ft 456 kts 13°
2026-04-27 18:10 45.65268 4.83639 39072 ft 457 kts 13°
2026-04-27 18:10 45.71352 4.86252 39071 ft 457 kts 13°
2026-04-27 18:11 45.77417 4.88864 39074 ft 456 kts 13°
2026-04-27 18:11 45.83475 4.91479 39073 ft 456 kts 13°
2026-04-27 18:12 45.89548 4.94105 39070 ft 456 kts 13°
2026-04-27 18:12 45.95641 4.96747 39070 ft 457 kts 13°
2026-04-27 18:13 46.01723 4.99390 39062 ft 457 kts 12°
2026-04-27 18:13 46.07811 5.02042 39053 ft 457 kts 12°
2026-04-27 18:14 46.13903 5.04702 39050 ft 457 kts 12°
2026-04-27 18:14 46.19999 5.07369 39052 ft 457 kts 12°
2026-04-27 18:15 46.26188 5.09205 39056 ft 449 kts 359°
2026-04-27 18:15 46.32410 5.09315 39049 ft 447 kts 355°
2026-04-27 18:16 46.38640 5.09337 39060 ft 447 kts 355°
2026-04-27 18:16 46.44876 5.09360 39059 ft 447 kts 355°
2026-04-27 18:17 46.51083 5.09383 39058 ft 447 kts 355°
2026-04-27 18:17 46.57307 5.09407 39056 ft 447 kts 355°
2026-04-27 18:18 46.63547 5.09432 39059 ft 447 kts 355°
2026-04-27 18:18 46.69765 5.09457 39059 ft 447 kts 355°
2026-04-27 18:19 46.75975 5.09481 39054 ft 447 kts 355°
2026-04-27 18:19 46.82184 5.09508 39051 ft 448 kts 355°
2026-04-27 18:20 46.88419 5.09538 39054 ft 448 kts 355°
2026-04-27 18:20 46.94684 5.09568 39056 ft 448 kts 355°
2026-04-27 18:21 47.00895 5.09598 39052 ft 447 kts 355°
2026-04-27 18:21 47.07127 5.09628 39059 ft 447 kts 355°
2026-04-27 18:22 47.13347 5.09658 39072 ft 447 kts 355°
2026-04-27 18:22 47.19525 5.09690 39067 ft 447 kts 355°
2026-04-27 18:23 47.25789 5.10781 39080 ft 457 kts
2026-04-27 18:23 47.31775 5.14053 39087 ft 468 kts 23°
2026-04-27 18:24 47.37424 5.19023 39078 ft 470 kts 27°
2026-04-27 18:24 47.42997 5.24050 39078 ft 470 kts 26°
2026-04-27 18:25 47.48550 5.29072 39079 ft 469 kts 26°
2026-04-27 18:25 47.54147 5.34148 39082 ft 470 kts 26°
2026-04-27 18:26 47.59700 5.39197 39097 ft 469 kts 26°
2026-04-27 18:26 47.65300 5.44086 39091 ft 465 kts 21°
2026-04-27 18:27 47.71370 5.47171 39091 ft 456 kts
2026-04-27 18:27 47.77554 5.49340 39094 ft 457 kts
2026-04-27 18:28 47.83738 5.51522 39099 ft 457 kts
2026-04-27 18:28 47.89925 5.53712 39092 ft 457 kts
2026-04-27 18:29 47.96065 5.55891 39096 ft 456 kts
2026-04-27 18:29 48.02264 5.58098 39102 ft 456 kts
2026-04-27 18:30 48.08460 5.60309 39111 ft 456 kts
2026-04-27 18:30 48.14624 5.62513 39107 ft 457 kts
2026-04-27 18:31 48.20775 5.64720 39115 ft 456 kts
2026-04-27 18:31 48.26799 5.66886 39114 ft 456 kts
2026-04-27 18:32 48.32863 5.69075 39111 ft 456 kts
2026-04-27 18:32 48.38945 5.71272 39113 ft 457 kts
2026-04-27 18:33 48.45091 5.73498 39118 ft 457 kts
2026-04-27 18:33 48.51301 5.75753 39124 ft 456 kts
2026-04-27 18:34 48.57480 5.78003 39119 ft 456 kts
2026-04-27 18:34 48.63655 5.80257 39119 ft 456 kts
2026-04-27 18:35 48.69844 5.82522 39118 ft 456 kts
2026-04-27 18:35 48.75991 5.84777 39107 ft 457 kts
2026-04-27 18:36 48.82164 5.87048 39101 ft 457 kts
2026-04-27 18:36 48.88338 5.89325 39118 ft 458 kts
2026-04-27 18:37 48.94532 5.91615 39111 ft 457 kts
2026-04-27 18:37 49.00716 5.93907 39109 ft 456 kts
2026-04-27 18:38 49.06879 5.96197 39103 ft 456 kts
2026-04-27 18:38 49.13031 5.98489 39117 ft 456 kts
2026-04-27 18:39 49.19167 6.00781 39107 ft 456 kts
2026-04-27 18:39 49.25316 6.03085 39131 ft 456 kts
2026-04-27 18:40 49.31455 6.05388 39119 ft 458 kts
2026-04-27 18:40 49.37656 6.07722 39121 ft 458 kts
2026-04-27 18:41 49.43832 6.10053 39126 ft 457 kts
2026-04-27 18:41 49.50055 6.11601 39140 ft 448 kts 356°
2026-04-27 18:42 49.55212 6.11794 39140 ft 447 kts 356°
2026-04-27 18:42 49.62497 6.12070 39127 ft 447 kts 356°
2026-04-27 18:43 49.68710 6.12306 39126 ft 449 kts 356°
2026-04-27 18:43 49.74919 6.12543 39133 ft 449 kts 356°
2026-04-27 18:44 49.81190 6.12785 39127 ft 448 kts 356°
2026-04-27 18:44 49.87429 6.12999 39122 ft 448 kts 355°
2026-04-27 18:45 49.90530 6.13021 39014 ft 440 kts 355°
2026-04-27 18:45 49.93547 6.13038 38587 ft 434 kts 354°
2026-04-27 18:45 49.96542 6.13055 38053 ft 430 kts 354°
2026-04-27 18:45 49.99551 6.13070 37510 ft 428 kts 354°
2026-04-27 18:46 50.02494 6.13086 36972 ft 425 kts 354°
2026-04-27 18:46 50.05449 6.13102 36416 ft 424 kts 354°
2026-04-27 18:46 50.08411 6.13117 35825 ft 426 kts 353°
2026-04-27 18:46 50.11350 6.13130 35206 ft 427 kts 353°
2026-04-27 18:47 50.14316 6.13145 34547 ft 429 kts 353°
2026-04-27 18:47 50.17270 6.13159 33884 ft 428 kts 353°
2026-04-27 18:47 50.20227 6.13177 33258 ft 426 kts 353°
2026-04-27 18:48 50.26018 6.13212 32051 ft 425 kts 353°
2026-04-27 18:48 50.28894 6.13239 31447 ft 429 kts 355°
2026-04-27 18:48 50.32014 6.13723 30818 ft 438 kts
2026-04-27 18:48 50.35008 6.14483 30293 ft 440 kts
2026-04-27 18:49 50.37942 6.15224 29818 ft 442 kts
2026-04-27 18:49 50.40953 6.15985 29280 ft 441 kts
2026-04-27 18:49 50.43980 6.16753 28743 ft 437 kts
2026-04-27 18:49 50.46939 6.17504 28219 ft 433 kts
2026-04-27 18:50 50.49931 6.18264 27683 ft 429 kts
2026-04-27 18:50 50.52776 6.18987 27187 ft 425 kts
2026-04-27 18:50 50.55681 6.19726 26674 ft 421 kts
2026-04-27 18:50 50.58564 6.20461 26164 ft 417 kts
2026-04-27 18:51 50.61404 6.21186 25665 ft 413 kts
2026-04-27 18:51 50.64245 6.21911 25162 ft 410 kts
2026-04-27 18:51 50.67009 6.22618 24676 ft 406 kts
2026-04-27 18:51 50.69754 6.23377 24197 ft 405 kts
2026-04-27 18:52 50.72417 6.24928 23685 ft 410 kts 23°
2026-04-27 18:52 50.74712 6.27493 23172 ft 413 kts 37°
2026-04-27 18:52 50.76822 6.30562 22647 ft 409 kts 39°
2026-04-27 18:53 50.80954 6.36593 21683 ft 404 kts 39°
2026-04-27 18:53 50.82935 6.39487 21214 ft 400 kts 39°
2026-04-27 18:53 50.84944 6.42426 20724 ft 394 kts 39°
2026-04-27 18:53 50.86929 6.45335 20261 ft 385 kts 39°
2026-04-27 18:54 50.88895 6.48218 19791 ft 377 kts 39°
2026-04-27 18:54 50.90783 6.50990 19339 ft 369 kts 39°
2026-04-27 18:54 50.92619 6.53688 18898 ft 362 kts 39°
2026-04-27 18:54 50.94438 6.56365 18448 ft 352 kts 39°
2026-04-27 18:55 50.96140 6.58872 18066 ft 342 kts 39°
2026-04-27 18:55 50.97602 6.61027 17707 ft 334 kts 39°
2026-04-27 18:55 50.99396 6.63674 17282 ft 323 kts 39°
2026-04-27 18:55 51.00957 6.65870 16921 ft 312 kts 32°
2026-04-27 18:56 51.02846 6.67356 16529 ft 296 kts 11°
2026-04-27 18:56 51.04646 6.67733 16193 ft 284 kts 355°
2026-04-27 18:56 51.06473 6.67614 15848 ft 276 kts 353°
2026-04-27 18:56 51.08069 6.67480 15608 ft 272 kts 353°
2026-04-27 18:57 51.10703 6.67131 15115 ft 267 kts 341°
2026-04-27 18:57 51.12424 6.66116 14868 ft 260 kts 333°
2026-04-27 18:57 51.13956 6.65103 14732 ft 262 kts 334°
2026-04-27 18:57 51.15607 6.64023 14517 ft 264 kts 334°
2026-04-27 18:58 51.17246 6.62951 14317 ft 263 kts 334°
2026-04-27 18:58 51.18332 6.62241 14187 ft 263 kts 334°
2026-04-27 18:58 51.20538 6.60797 13909 ft 262 kts 335°
2026-04-27 18:58 51.22204 6.59707 13705 ft 261 kts 335°
2026-04-27 18:59 51.23888 6.58605 13490 ft 261 kts 335°
2026-04-27 18:59 51.25552 6.57515 13283 ft 260 kts 335°
2026-04-27 18:59 51.27218 6.56422 13083 ft 259 kts 335°
2026-04-27 18:59 51.28896 6.55281 12871 ft 258 kts 332°
2026-04-27 19:00 51.30453 6.53951 12670 ft 256 kts 329°
2026-04-27 19:00 51.31962 6.52613 12473 ft 256 kts 329°
2026-04-27 19:00 51.33515 6.51240 12222 ft 257 kts 329°
2026-04-27 19:00 51.35132 6.49961 11868 ft 258 kts 340°
2026-04-27 19:01 51.36901 6.49589 11523 ft 259 kts
2026-04-27 19:01 51.38620 6.50358 11184 ft 261 kts 27°
2026-04-27 19:01 51.40005 6.52161 10843 ft 262 kts 49°
2026-04-27 19:01 51.41111 6.54457 10467 ft 262 kts 52°
2026-04-27 19:02 51.42205 6.56756 10068 ft 263 kts 52°
2026-04-27 19:02 51.43277 6.59055 9695 ft 264 kts 57°
2026-04-27 19:02 51.43963 6.61686 9245 ft 266 kts 79°
2026-04-27 19:02 51.43957 6.64514 8905 ft 263 kts 102°
2026-04-27 19:03 51.43291 6.67057 8499 ft 262 kts 125°
2026-04-27 19:03 51.42149 6.68942 8151 ft 260 kts 142°
2026-04-27 19:03 51.40815 6.70453 7785 ft 258 kts 152°
2026-04-27 19:03 51.39945 6.71038 7578 ft 257 kts 164°
2026-04-27 19:04 51.37306 6.70956 6984 ft 255 kts 199°
2026-04-27 19:04 51.35911 6.69671 6620 ft 254 kts 221°
2026-04-27 19:04 51.34732 6.67479 6203 ft 253 kts 232°
2026-04-27 19:04 51.33681 6.65259 5804 ft 252 kts 232°
2026-04-27 19:05 51.32623 6.63045 5399 ft 251 kts 232°
2026-04-27 19:05 51.31576 6.60858 4988 ft 249 kts 232°
2026-04-27 19:05 51.30559 6.58731 4625 ft 243 kts 232°
2026-04-27 19:05 51.29663 6.56860 4406 ft 234 kts 232°
2026-04-27 19:06 51.28679 6.54806 4174 ft 228 kts 232°
2026-04-27 19:06 51.27692 6.52749 4003 ft 226 kts 232°
2026-04-27 19:06 51.26745 6.50777 3996 ft 228 kts 232°
2026-04-27 19:06 51.25785 6.48780 3998 ft 228 kts 232°
2026-04-27 19:07 51.24830 6.46793 4006 ft 229 kts 232°
2026-04-27 19:07 51.23871 6.44800 4001 ft 228 kts 232°
2026-04-27 19:07 51.22924 6.42834 4003 ft 221 kts 231°
2026-04-27 19:07 51.22028 6.40987 4014 ft 204 kts 232°
2026-04-27 19:08 51.21180 6.39241 4015 ft 197 kts 232°
2026-04-27 19:08 51.20336 6.37504 3999 ft 198 kts 231°
2026-04-27 19:08 51.19495 6.35804 3992 ft 197 kts 226°
2026-04-27 19:08 51.18349 6.34755 3977 ft 191 kts 184°
2026-04-27 19:09 51.17298 6.35032 3988 ft 185 kts 147°
2026-04-27 19:09 51.16504 6.36650 3997 ft 180 kts 100°
2026-04-27 19:09 51.16473 6.38479 3969 ft 178 kts 84°
2026-04-27 19:09 51.16591 6.40330 3898 ft 163 kts 85°
2026-04-27 19:10 51.16577 6.41948 3794 ft 162 kts 92°
2026-04-27 19:10 51.16503 6.43843 3649 ft 160 kts 92°
2026-04-27 19:10 51.16429 6.45585 3525 ft 159 kts 92°
2026-04-27 19:10 51.16381 6.46734 3444 ft 158 kts 93°
2026-04-27 19:11 51.16336 6.49067 3275 ft 158 kts 82°
2026-04-27 19:11 51.16715 6.50675 3110 ft 159 kts 60°
2026-04-27 19:11 51.17355 6.52056 2991 ft 155 kts 51°
2026-04-27 19:11 51.18053 6.53391 2990 ft 157 kts 52°
2026-04-27 19:12 51.18728 6.54747 2994 ft 150 kts 53°
2026-04-27 19:12 51.19341 6.56016 3012 ft 149 kts 53°
2026-04-27 19:12 51.19967 6.57324 2843 ft 149 kts 53°
2026-04-27 19:12 51.20533 6.58504 2691 ft 145 kts 53°
2026-04-27 19:13 51.21160 6.59811 2493 ft 145 kts 53°
2026-04-27 19:13 51.21758 6.61057 2307 ft 142 kts 53°
2026-04-27 19:13 51.22329 6.62247 2129 ft 141 kts 53°
2026-04-27 19:13 51.22909 6.63458 1927 ft 137 kts 53°
2026-04-27 19:14 51.23476 6.64640 1747 ft 137 kts 53°
2026-04-27 19:14 51.23956 6.65648 1612 ft 138 kts 54°
2026-04-27 19:14 51.24460 6.66706 1466 ft 130 kts 54°
2026-04-27 19:14 51.24942 6.67706 1375 ft 121 kts 54°
2026-04-27 19:15 51.25365 6.68584 1182 ft 117 kts 54°